Williston, ND

7:13 AM CDT on July 23, 2017 (GMT -0500)
Sloulin International

Weather History for KISN - April, 2013

Change the Weather History Date:

Sunday, April 7, 2013

  Actual Average Record
Temperature  
Mean Temperature 43 °F 40 °F  
Max Temperature 53 °F 53 °F 82 °F (2005)
Min Temperature 32 °F 27 °F 2 °F (1936)
Degree Days  
Heating Degree Days 22 25  
Month to date heating degree days 210 186  
Since 1 July heating degree days 8248 8061  
Cooling Degree Days 0 0  
Month to date cooling degree days 0 0  
Year to date cooling degree days 0 0  
Moisture  
Dew Point 33 °F    
Average Humidity 81    
Maximum Humidity 100    
Minimum Humidity 61    
Precipitation  
Precipitation 0.10 in 0.03 in 0.70 in (1948)
Month to date precipitation 0.10 0.19  
Year to date precipitation 2.09 1.88  
Sea Level Pressure  
Sea Level Pressure 29.73 in    
Wind  
Wind Speed 10 mph (ENE)    
Max Wind Speed 18 mph    
Max Gust Speed 23 mph    
Visibility 7 miles    
Events Snow    
T = Trace of Precipitation, MM = Missing Value Source: NWS Daily Summary

Daily Weather History Graph

Daily Weather History Graph

Search for Another Location

Airport or City:

Trip Planner

Search our weather history database for the weather conditions in past years. The results will help you decide how hot, cold, wet, or windy it might be!

Date:

Astronomy

Apr. 07, 2013 Rise Set
Actual Time 7:19 AM CDT 8:34 PM CDT
Civil Twilight 6:47 AM CDT 9:06 PM CDT
Nautical Twilight 6:09 AM CDT 9:44 PM CDT
Astronomical Twilight 5:28 AM CDT 10:26 PM CDT
Moon 5:50 AM CDT (4/7) 5:59 PM CDT (4/7)
Length of Visible Light 14h 18m
Length of Day
13h 14m
Waning Crescent, 8% of the Moon is Illuminated
Apr 7
Waning Crescent
Apr 10
New
Apr 18
First Quarter
Apr 25
Full
May 2
Last Quarter

Hourly Weather History & Observations

Time (CDT) Temp. Windchill Dew Point Humidity Pressure Visibility Wind Dir Wind Speed Gust Speed Precip Events Conditions
12:52 AM 33.1 °F 28.7 °F 28.9 °F 85% 29.89 in 8.0 mi ENE 4.6 mph - N/A   Overcast
1:52 AM 32.0 °F - 28.9 °F 88% 29.89 in 8.0 mi Calm Calm - N/A   Overcast
2:52 AM 32.0 °F 28.7 °F 28.9 °F 88% 29.86 in 8.0 mi SE 3.5 mph - N/A   Overcast
3:52 AM 33.1 °F 27.7 °F 30.0 °F 89% 29.83 in 7.0 mi ESE 5.8 mph - N/A   Overcast
4:52 AM 33.1 °F - 30.0 °F 89% 29.86 in 7.0 mi Calm Calm - N/A   Overcast
5:22 AM 33.8 °F 30.8 °F 30.2 °F 87% 29.77 in 1.8 mi ESE 3.5 mph - 0.00 in Snow Light Snow
5:34 AM 32.0 °F 24.8 °F 30.2 °F 93% 29.75 in 2.0 mi ESE 8.1 mph - 0.01 in Snow Light Snow
5:39 AM 32.0 °F 25.6 °F 30.2 °F 93% 29.75 in 1.2 mi ESE 6.9 mph - 0.02 in Snow Light Snow
5:52 AM 32.0 °F - 32.0 °F 100% 29.83 in 2.5 mi Calm Calm - 0.05 in   Overcast
5:59 AM 32.0 °F - 32.0 °F 100% 29.77 in 3.0 mi Calm Calm - 0.00 in   Overcast
6:17 AM 32.0 °F 27.5 °F 32.0 °F 100% 29.77 in 1.8 mi South 4.6 mph - 0.00 in Snow Light Snow
6:37 AM 32.0 °F 25.6 °F 30.2 °F 93% 29.74 in 0.8 mi SSE 6.9 mph - 0.04 in Snow Light Snow
6:39 AM 32.0 °F 26.4 °F 32.0 °F 100% 29.74 in 1.0 mi SSE 5.8 mph - 0.04 in Snow Light Snow
6:49 AM 32.0 °F 25.6 °F 32.0 °F 100% 29.73 in 2.0 mi SE 6.9 mph - 0.05 in   Overcast
6:52 AM 32.0 °F 25.6 °F 32.0 °F 100% 29.79 in 2.5 mi SE 6.9 mph - 0.05 in   Overcast
7:01 AM 32.0 °F 26.4 °F 32.0 °F 100% 29.72 in 3.0 mi SE 5.8 mph - 0.00 in   Overcast
7:17 AM 32.0 °F 24.8 °F 32.0 °F 100% 29.71 in 4.0 mi SSE 8.1 mph - 0.00 in   Overcast
7:52 AM 33.1 °F 24.9 °F 32.0 °F 96% 29.77 in 4.0 mi SSE 10.4 mph - 0.00 in   Overcast
8:52 AM 33.1 °F 25.5 °F 32.0 °F 96% 29.75 in 5.0 mi South 9.2 mph - N/A   Overcast
9:52 AM 35.6 °F 29.2 °F 33.8 °F 93% 29.67 in 6.0 mi South 8.1 mph - N/A   Partly Cloudy
10:37 AM 37.4 °F 31.4 °F 35.6 °F 93% 29.66 in 7.0 mi South 8.1 mph - N/A   Mostly Cloudy
10:47 AM 39.2 °F 32.0 °F 35.6 °F 87% 29.65 in 7.0 mi South 11.5 mph - N/A   Mostly Cloudy
10:52 AM 39.2 °F 33.0 °F 35.6 °F 87% 29.66 in 8.0 mi South 9.2 mph - N/A   Overcast
11:35 AM 41.0 °F 35.8 °F 37.4 °F 87% 29.65 in 9.0 mi South 8.1 mph - N/A   Scattered Clouds
11:43 AM 42.8 °F 38.6 °F 37.4 °F 81% 29.66 in 9.0 mi SSW 6.9 mph - N/A   Mostly Cloudy
11:52 AM 42.1 °F 37.1 °F 37.0 °F 82% 29.71 in 10.0 mi SSW 8.1 mph - N/A   Mostly Cloudy
12:36 PM 46.4 °F 42.9 °F 37.4 °F 71% 29.65 in 10.0 mi West 6.9 mph - N/A   Scattered Clouds
12:52 PM 46.9 °F - 37.9 °F 71% 29.69 in 10.0 mi West 6.9 mph - N/A   Scattered Clouds
1:52 PM 50.0 °F - 37.0 °F 61% 29.67 in 10.0 mi West 9.2 mph - N/A   Clear
2:52 PM 50.0 °F - 37.9 °F 63% 29.68 in 10.0 mi NW 13.8 mph - N/A   Clear
3:52 PM 48.9 °F - 37.9 °F 66% 29.68 in 10.0 mi North 12.7 mph - N/A   Clear
4:52 PM 46.0 °F 39.3 °F 37.9 °F 73% 29.69 in 10.0 mi North 16.1 mph - N/A   Clear
5:52 PM 43.0 °F 35.4 °F 35.1 °F 74% 29.71 in 10.0 mi NNE 16.1 mph - N/A   Partly Cloudy
6:16 PM 42.8 °F 36.6 °F 33.8 °F 70% 29.66 in 10.0 mi NNE 11.5 mph - N/A   Mostly Cloudy
6:27 PM 42.8 °F 35.1 °F 33.8 °F 70% 29.67 in 10.0 mi North 16.1 mph - N/A   Scattered Clouds
6:32 PM 42.8 °F 35.4 °F 33.8 °F 70% 29.67 in 10.0 mi North 15.0 mph - N/A   Mostly Cloudy
6:40 PM 41.0 °F 32.8 °F 33.8 °F 76% 29.67 in 10.0 mi North 16.1 mph - N/A   Scattered Clouds
6:52 PM 41.0 °F 32.8 °F 34.0 °F 76% 29.73 in 10.0 mi North 16.1 mph - N/A   Scattered Clouds
7:00 PM 39.2 °F 30.5 °F 33.8 °F 81% 29.67 in 10.0 mi North 16.1 mph - N/A   Mostly Cloudy
7:50 PM 37.4 °F 28.5 °F 33.8 °F 87% 29.69 in 10.0 mi North 15.0 mph - N/A   Overcast
7:52 PM 37.9 °F 29.6 °F 33.1 °F 83% 29.75 in 10.0 mi North 13.8 mph - N/A   Overcast
8:11 PM 37.4 °F 30.3 °F 32.0 °F 81% 29.69 in 10.0 mi NNE 10.4 mph - N/A   Overcast
8:22 PM 37.4 °F 30.3 °F 33.8 °F 87% 29.69 in 10.0 mi North 10.4 mph - N/A   Overcast
8:28 PM 35.6 °F 27.5 °F 32.0 °F 87% 29.69 in 10.0 mi NNE 11.5 mph - N/A   Mostly Cloudy
8:40 PM 35.6 °F 27.1 °F 32.0 °F 87% 29.70 in 9.0 mi NNE 12.7 mph 17.3 mph N/A   Mostly Cloudy
8:52 PM 36.0 °F 26.3 °F 32.0 °F 86% 29.77 in 9.0 mi North 16.1 mph - N/A   Mostly Cloudy
9:38 PM 33.8 °F 24.3 °F 30.2 °F 87% 29.73 in 9.0 mi North 13.8 mph - N/A   Overcast
9:52 PM 34.0 °F 24.6 °F 30.9 °F 89% 29.80 in 9.0 mi North 13.8 mph - N/A   Overcast
10:52 PM 33.1 °F 22.2 °F 30.9 °F 92% 29.81 in 7.0 mi North 17.3 mph - N/A   Overcast
11:52 PM 33.1 °F 23.9 °F 30.9 °F 92% 29.82 in 8.0 mi North 12.7 mph 21.9 mph N/A   Overcast